Location: ??????
(55.6500°N, 37.8000°E)
Time: 04:53:38
(UTC+00:00)

Cosmos 44 Rocket - Pass Details

Date: 14 April 2024
Orbit: 641 x 743 km, 65.1° (Epoch: 20 May)

Event Time Altitude Azimuth Distance (km) Brightness Sun altitude
Exits shadow 00:10:15 28° 210° (SSW) 1,360 4.2 -16.7°
Maximum altitude 00:12:57 72° 133° (SE) 784 3.5 -16.5°
Drops below altitude 10° 00:18:05 10° 49° (NE) 2,245 7.3 -16.0°
Sets 00:20:27 0° 48° (NE) 3,159 8.6 -15.8°
